EW0138 Weather Reports


time (UTC)temp
C
wind
direction
speed
KPH
gust
KPH
rain 1hr
cm
rain 24hr
cm
rain mn
cm
humidity
%
barometer
mb
20260906223533 26 210 17.7 40.2 0.00 0.00 0.00 20 1008.7
20260906223033 26 208 14.5 40.2 0.00 0.00 0.00 19 1008.6
20260906222534 26 228 19.3 35.4 0.00 0.00 0.00 20 1008.6
20260906222033 26 220 19.3 33.8 0.00 0.00 0.00 20 1008.7
20260906221533 26 242 12.9 38.6 0.00 0.00 0.00 21 1008.8
20260906221032 27 222 16.1 38.6 0.00 0.00 0.00 21 1008.9
20260906220532 27 213 19.3 40.2 0.00 0.00 0.00 20 1009.0
20260906220032 27 212 24.1 40.2 0.00 0.00 0.00 19 1008.8
20260906215531 28 220 19.3 29.0 0.00 0.00 0.00 17 1008.8
20260906215031 28 254 17.7 30.6 0.00 0.00 0.00 17 1008.8
20260906214531 28 223 22.5 30.6 0.00 0.00 0.00 16 1008.7
20260906214031 28 220 16.1 25.7 0.00 0.00 0.00 18 1008.7
20260906213531 28 300 4.8 19.3 0.00 0.00 0.00 18 1008.5
20260906213033 28 237 9.7 20.9 0.00 0.00 0.00 18 1008.7
20260906212530 28 261 14.5 20.9 0.00 0.00 0.00 16 1008.7
20260906212030 28 268 3.2 12.9 0.00 0.00 0.00 17 1008.6
20260906211529 28 212 3.2 17.7 0.00 0.00 0.00 18 1008.7
20260906211029 28 213 6.4 22.5 0.00 0.00 0.00 17 1008.9
20260906210531 27 216 11.3 22.5 0.00 0.00 0.00 16 1009.0
20260906210031 28 215 14.5 29.0 0.00 0.00 0.00 17 1009.1
20260906205529 28 239 12.9 29.0 0.00 0.00 0.00 17 1009.0
20260906205028 28 207 6.4 16.1 0.00 0.00 0.00 20 1008.7
20260906204528 28 215 11.3 22.5 0.00 0.00 0.00 17 1009.0
20260906204030 28 292 12.9 29.0 0.00 0.00 0.00 17 1009.0
20260906203528 28 293 16.1 29.0 0.00 0.00 0.00 19 1009.0
20260906203031 28 262 20.9 29.0 0.00 0.00 0.00 18 1008.9
20260906202528 28 236 12.9 25.7 0.00 0.00 0.00 19 1008.8
20260906202026 28 220 11.3 35.4 0.00 0.00 0.00 18 1008.9
20260906201526 28 216 16.1 29.0 0.00 0.00 0.00 17 1008.9
20260906201025 28 218 19.3 29.0 0.00 0.00 0.00 18 1009.1
20260906200524 28 239 4.8 27.4 0.00 0.00 0.00 18 1009.2
20260906200023 28 240 6.4 20.9 0.00 0.00 0.00 20 1009.4
20260906195521 28 153 1.6 16.1 0.00 0.00 0.00 19 1009.4
20260906195020 28 195 4.8 20.9 0.00 0.00 0.00 22 1009.7
20260906194520 28 120 6.4 12.9 0.00 0.00 0.00 23 1009.7
20260906194018 27 127 4.8 17.7 0.00 0.00 0.00 21 1009.8
20260906193519 27 36 1.6 17.7 0.00 0.00 0.00 23 1009.8
20260906193017 27 118 11.3 16.1 0.00 0.00 0.00 23 1010.1
20260906192516 27 80 4.8 16.1 0.00 0.00 0.00 21 1010.2
20260906192014 27 89 8.0 14.5 0.00 0.00 0.00 24 1010.3
20260906191513 27 96 9.7 14.5 0.00 0.00 0.00 25 1010.4
20260906191011 26 115 6.4 12.9 0.00 0.00 0.00 24 1010.5
20260906190512 26 63 3.2 16.1 0.00 0.00 0.00 26 1010.7
20260906190009 26 95 11.3 16.1 0.00 0.00 0.00 25 1010.9
20260906185508 26 98 4.8 14.5 0.00 0.00 0.00 27 1011.0
20260906185010 26 115 9.7 14.5 0.00 0.00 0.00 28 1011.0
20260906184507 25 73 4.8 16.1 0.00 0.00 0.00 28 1011.0
20260906184008 25 92 9.7 16.1 0.00 0.00 0.00 28 1011.1
20260906183504 25 117 6.4 14.5 0.00 0.00 0.00 27 1011.1
20260906183009 25 129 6.4 14.5 0.00 0.00 0.00 28 1011.2
20260906182503 25 102 8.0 14.5 0.00 0.00 0.00 29 1011.3
20260906182101 25 80 6.4 12.9 0.00 0.00 0.00 28 1011.5
20260906181600 25 118 4.8 16.1 0.00 0.00 0.00 28 1011.6
20260906181059 24 123 8.0 17.7 0.00 0.00 0.00 29 1011.7
20260906180559 24 102 12.9 17.7 0.00 0.00 0.00 30 1011.8
20260906180056 24 120 8.0 16.1 0.00 0.00 0.00 29 1012.0
20260906175555 24 109 9.7 16.1 0.00 0.00 0.00 29 1012.1
20260906175059 23 107 11.3 19.3 0.00 0.00 0.00 29 1012.1
20260906174554 23 104 11.3 19.3 0.00 0.00 0.00 31 1012.2
20260906174051 23 104 9.7 19.3 0.00 0.00 0.00 31 1012.3
20260906173550 23 92 6.4 19.3 0.00 0.00 0.00 31 1012.4
20260906173050 23 107 11.3 16.1 0.00 0.00 0.00 31 1012.5
20260906172554 23 114 8.0 17.7 0.00 0.00 0.00 32 1012.7
20260906172048 23 108 8.0 17.7 0.00 0.00 0.00 32 1012.7
20260906171546 23 120 9.7 14.5 0.00 0.00 0.00 32 1012.8
20260906171044 23 79 6.4 14.5 0.00 0.00 0.00 31 1012.9
20260906170544 23 119 6.4 16.1 0.00 0.00 0.00 32 1012.9
20260906170043 23 114 9.7 16.1 0.00 0.00 0.00 31 1013.0
20260906165543 23 118 3.2 14.5 0.00 0.00 0.00 32 1013.1
20260906165041 22 108 4.8 14.5 0.00 0.00 0.00 31 1013.2
20260906164538 22 116 8.0 16.1 0.00 0.00 0.00 32 1013.1
20260906164037 22 129 3.2 9.7 0.00 0.00 0.00 32 1013.2
20260906163536 22 127 3.2 8.0 0.00 0.00 0.00 34 1013.2
20260906163035 21 307 0.0 11.3 0.00 0.00 0.00 35 1013.2
20260906162533 21 282 4.8 11.3 0.00 0.00 0.00 34 1013.4
20260906162032 22 254 1.6 6.4 0.00 0.00 0.00 33 1013.5
20260906161530 21 71 0.0 3.2 0.00 0.00 0.00 35 1013.5
20260906161028 21 71 0.0 9.7 0.00 0.00 0.00 33 1013.6
20260906160528 21 95 4.8 9.7 0.00 0.00 0.00 34 1013.4
20260906160026 21 64 1.6 9.7 0.00 0.00 0.00 35 1013.5
20260906155524 21 81 0.0 9.7 0.00 0.00 0.00 36 1013.5
20260906155022 21 23 3.2 9.7 0.00 0.00 0.00 35 1013.5
20260906154521 20 311 1.6 9.7 0.00 0.00 0.00 37 1013.5
20260906154022 20 10 6.4 12.9 0.00 0.00 0.00 36 1013.7
20260906153518 20 18 6.4 12.9 0.00 0.00 0.00 36 1013.6
20260906153026 20 25 4.8 11.3 0.00 0.00 0.00 36 1013.7
20260906152515 20 97 4.8 11.3 0.00 0.00 0.00 37 1013.6
20260906152014 20 25 0.0 9.7 0.00 0.00 0.00 37 1013.8
20260906151513 20 78 1.6 14.5 0.00 0.00 0.00 37 1013.8
20260906151012 21 49 9.7 14.5 0.00 0.00 0.00 37 1013.8
20260906150510 20 71 1.6 9.7 0.00 0.00 0.00 37 1013.9
20260906150008 20 104 4.8 9.7 0.00 0.00 0.00 37 1013.9
20260906145507 20 59 4.8 12.9 0.00 0.00 0.00 37 1013.9
20260906145007 20 25 6.4 12.9 0.00 0.00 0.00 38 1013.8
20260906144504 20 39 3.2 8.0 0.00 0.00 0.00 38 1013.9
20260906144002 18 235 0.0 4.8 0.00 0.00 0.00 40 1013.9
20260906143501 17 235 1.6 4.8 0.00 0.00 0.00 43 1013.9
20260906143101 16 235 0.0 3.2 0.00 0.00 0.00 46 1013.9
20260906142559 15 235 0.0 3.2 0.00 0.00 0.00 50 1013.9
20260906142058 15 235 0.0 3.2 0.00 0.00 0.00 49 1013.9
20260906141555 13 235 0.0 1.6 0.00 0.00 0.00 51 1013.9
20260906141054 13 235 0.0 4.8 0.00 0.00 0.00 50 1014.0
20260906140553 13 235 1.6 6.4 0.00 0.00 0.00 51 1014.0
20260906140052 12 235 0.0 6.4 0.00 0.00 0.00 48 1014.0
20260906135550 12 235 0.0 4.8 0.00 0.00 0.00 46 1013.9
20260906135048 12 235 3.2 4.8 0.00 0.00 0.00 50 1014.0
20260906134556 11 235 1.6 4.8 0.00 0.00 0.00 49 1014.0
20260906134046 11 235 3.2 8.0 0.00 0.00 0.00 51 1014.0
20260906133544 11 226 6.4 8.0 0.00 0.00 0.00 51 1014.0
20260906133107 11 215 1.6 6.4 0.00 0.00 0.00 48 1014.0
20260906132542 11 215 0.0 8.0 0.00 0.00 0.00 51 1014.0
20260906132040 11 210 4.8 8.0 0.00 0.00 0.00 47 1013.8
20260906131538 11 249 6.4 8.0 0.00 0.00 0.00 47 1013.8
20260906131036 11 237 0.0 3.2 0.00 0.00 0.00 48 1013.9
20260906130536 11 237 0.0 3.2 0.00 0.00 0.00 47 1013.9
20260906130038 10 237 0.0 4.8 0.00 0.00 0.00 49 1013.8
20260906125535 10 237 3.2 9.7 0.00 0.00 0.00 48 1013.8
20260906125034 11 239 4.8 9.7 0.00 0.00 0.00 48 1013.7
20260906124534 11 265 4.8 6.4 0.00 0.00 0.00 48 1013.7
20260906124034 10 289 1.6 8.0 0.00 0.00 0.00 50 1013.7
20260906123537 10 289 3.2 8.0 0.00 0.00 0.00 50 1013.7
20260906123033 10 267 4.8 6.4 0.00 0.00 0.00 50 1013.7
20260906122533 10 241 4.8 6.4 0.00 0.00 0.00 49 1013.7
20260906122032 10 275 1.6 9.7 0.00 0.00 0.00 50 1013.7
20260906121530 11 242 4.8 9.7 0.00 0.00 0.00 51 1013.6
20260906121029 11 220 1.6 6.4 0.00 0.00 0.00 48 1013.6
20260906120529 11 286 3.2 4.8 0.00 0.00 0.00 46 1013.5
20260906120027 11 274 3.2 6.4 0.00 0.00 0.00 47 1013.4
20260906115531 12 274 3.2 6.4 0.00 0.00 0.00 46 1013.5
20260906115025 12 272 1.6 6.4 0.00 0.00 0.00 46 1013.5
20260906114526 12 272 3.2 6.4 0.00 0.00 0.00 46 1013.4
20260906114024 12 241 3.2 6.4 0.00 0.00 0.00 49 1013.4
20260906113524 12 255 0.0 3.2 0.00 0.00 0.00 48 1013.3
20260906113023 12 255 0.0 3.2 0.00 0.00 0.00 47 1013.4
20260906112522 12 255 0.0 4.8 0.00 0.00 0.00 48 1013.4
20260906112022 12 255 1.6 6.4 0.00 0.00 0.00 48 1013.4
20260906111521 13 256 4.8 6.4 0.00 0.00 0.00 45 1013.3
20260906111020 13 222 0.0 3.2 0.00 0.00 0.00 46 1013.2
20260906110521 13 222 0.0 8.0 0.00 0.00 0.00 48 1013.2
20260906110020 12 222 4.8 8.0 0.00 0.00 0.00 48 1013.2
20260906105519 12 240 1.6 6.4 0.00 0.00 0.00 48 1013.2
20260906105018 13 268 3.2 6.4 0.00 0.00 0.00 47 1013.1
20260906104522 13 249 1.6 6.4 0.00 0.00 0.00 48 1013.1
20260906104016 14 248 0.0 3.2 0.00 0.00 0.00 43 1013.0
20260906103515 13 249 0.0 3.2 0.00 0.00 0.00 45 1013.0
20260906103015 13 248 1.6 3.2 0.00 0.00 0.00 45 1012.9
20260906102515 13 248 0.0 6.4 0.00 0.00 0.00 47 1012.8
20260906102015 13 248 3.2 6.4 0.00 0.00 0.00 45 1012.8
20260906101521 14 248 3.2 4.8 0.00 0.00 0.00 43 1012.8
20260906101012 14 328 0.0 3.2 0.00 0.00 0.00 43 1012.8
20260906100512 13 328 0.0 3.2 0.00 0.00 0.00 44 1012.7
20260906100012 13 328 0.0 1.6 0.00 0.00 0.00 44 1012.6
20260906095511 13 328 0.0 3.2 0.00 0.00 0.00 43 1012.6
20260906095014 13 328 0.0 4.8 0.00 0.00 0.00 43 1012.6
20260906094511 14 328 0.0 1.6 0.00 0.00 0.00 43 1012.6
20260906094010 14 328 0.0 4.8 0.00 0.00 0.00 41 1012.6
20260906093511 14 328 0.0 4.8 0.00 0.00 0.00 40 1012.5
20260906093010 15 328 0.0 6.4 0.00 0.00 0.00 39 1012.4
20260906092511 15 328 3.2 9.7 0.00 0.00 0.00 39 1012.3
20260906092008 15 270 4.8 9.7 0.00 0.00 0.00 40 1012.3
20260906091508 14 275 1.6 4.8 0.00 0.00 0.00 43 1012.3
20260906091007 14 275 0.0 3.2 0.00 0.00 0.00 42 1012.4
20260906090505 14 275 0.0 3.2 0.00 0.00 0.00 40 1012.2
20260906090006 15 275 0.0 3.2 0.00 0.00 0.00 40 1012.2
20260906085504 15 275 0.0 3.2 0.00 0.00 0.00 44 1012.1
20260906085003 15 275 0.0 4.8 0.00 0.00 0.00 38 1012.0
20260906084601 15 275 1.6 4.8 0.00 0.00 0.00 39 1011.9
20260906084102 16 321 0.0 4.8 0.00 0.00 0.00 36 1011.9
20260906083558 16 52 0.0 4.8 0.00 0.00 0.00 37 1011.8
20260906083101 16 52 3.2 8.0 0.00 0.00 0.00 35 1011.7
20260906082556 17 272 3.2 8.0 0.00 0.00 0.00 37 1011.8
20260906082056 17 282 0.0 3.2 0.00 0.00 0.00 34 1011.6
20260906081553 17 282 0.0 8.0 0.00 0.00 0.00 33 1011.7
20260906081051 18 281 4.8 8.0 0.00 0.00 0.00 33 1011.4
20260906080551 18 81 4.8 6.4 0.00 0.00 0.00 31 1011.3
20260906080050 19 81 3.2 6.4 0.00 0.00 0.00 31 1011.2
20260906075548 20 73 1.6 11.3 0.00 0.00 0.00 31 1011.2
20260906075046 20 73 1.6 11.3 0.00 0.00 0.00 29 1011.1
20260906074545 21 93 0.0 22.5 0.00 0.00 0.00 30 1011.2
20260906074043 21 354 4.8 30.6 0.00 0.00 0.00 29 1011.0
20260906073545 22 218 14.5 40.2 0.00 0.00 0.00 29 1011.0
20260906073043 22 222 20.9 40.2 0.00 0.00 0.00 29 1011.0
20260906072542 22 221 25.7 40.2 0.00 0.00 0.00 29 1010.9
20260906072042 22 243 22.5 37.0 0.00 0.00 0.00 29 1010.9
20260906071542 22 229 22.5 37.0 0.00 0.00 0.00 28 1010.7
20260906071041 22 220 22.5 33.8 0.00 0.00 0.00 29 1010.8
20260906070541 22 239 22.5 38.6 0.00 0.00 0.00 28 1010.8
20260906070040 22 236 19.3 38.6 0.00 0.00 0.00 28 1010.8
20260906065541 22 220 24.1 33.8 0.00 0.00 0.00 28 1010.8
20260906065040 22 250 20.9 33.8 0.00 0.00 0.00 29 1010.9
20260906064538 22 268 24.1 35.4 0.00 0.00 0.00 28 1010.8
20260906064038 22 221 20.9 35.4 0.00 0.00 0.00 28 1011.0
20260906063536 22 234 24.1 35.4 0.00 0.00 0.00 28 1010.8
20260906063037 22 232 25.7 35.4 0.00 0.00 0.00 28 1010.9
20260906062536 22 221 25.7 38.6 0.00 0.00 0.00 28 1010.9
20260906062036 22 208 25.7 40.2 0.00 0.00 0.00 28 1011.0
20260906061535 22 230 25.7 40.2 0.00 0.00 0.00 28 1011.0
20260906061034 22 240 22.5 33.8 0.00 0.00 0.00 28 1011.0
20260906060533 22 216 20.9 35.4 0.00 0.00 0.00 27 1011.2
20260906060033 22 235 24.1 35.4 0.00 0.00 0.00 27 1011.1
20260906055531 22 217 24.1 35.4 0.00 0.00 0.00 27 1011.1
20260906055032 22 226 25.7 38.6 0.00 0.00 0.00 27 1011.1
20260906054531 22 245 25.7 38.6 0.00 0.00 0.00 26 1011.1
20260906054033 23 243 27.4 40.2 0.00 0.00 0.00 26 1011.1
20260906053531 23 228 29.0 41.8 0.00 0.00 0.00 26 1011.0
20260906053034 23 235 29.0 41.8 0.00 0.00 0.00 26 1011.1
20260906052534 23 231 27.4 40.2 0.00 0.00 0.00 26 1011.0
20260906052031 23 228 27.4 40.2 0.00 0.00 0.00 26 1011.1
20260906051533 23 218 29.0 45.1 0.00 0.00 0.00 26 1011.1
20260906051030 22 258 29.0 45.1 0.00 0.00 0.00 27 1011.1
20260906050530 22 250 30.6 43.5 0.00 0.00 0.00 27 1011.2
20260906050030 21 218 14.5 24.1 0.00 0.00 0.00 28 1011.5
20260906045531 21 249 4.8 16.1 0.00 0.00 0.00 29 1011.6
20260906045032 21 243 3.2 19.3 0.00 0.00 0.00 28 1011.7
20260906044530 21 212 11.3 25.7 0.00 0.00 0.00 29 1011.7
20260906044030 21 185 17.7 25.7 0.00 0.00 0.00 28 1011.6
20260906043529 21 222 11.3 22.5 0.00 0.00 0.00 29 1011.6
20260906043030 21 222 11.3 20.9 0.00 0.00 0.00 28 1011.6
20260906042530 21 220 12.9 17.7 0.00 0.00 0.00 28 1011.5
20260906042029 22 222 12.9 17.7 0.00 0.00 0.00 28 1011.5
20260906041529 21 214 11.3 19.3 0.00 0.00 0.00 29 1011.6
20260906041028 21 201 8.0 12.9 0.00 0.00 0.00 29 1011.6
20260906040528 21 216 8.0 12.9 0.00 0.00 0.00 29 1011.6
20260906040035 21 240 4.8 11.3 0.00 0.00 0.00 29 1011.5
20260906035528 21 247 1.6 9.7 0.00 0.00 0.00 29 1011.4
20260906035028 21 187 0.0 6.4 0.00 0.00 0.00 29 1011.5
20260906034538 21 227 1.6 6.4 0.00 0.00 0.00 28 1011.5
20260906034028 21 251 0.0 11.3 0.00 0.00 0.00 28 1011.5
20260906033528 21 234 4.8 11.3 0.00 0.00 0.00 28 1011.5
20260906033028 21 232 1.6 8.0 0.00 0.00 0.00 28 1011.5
20260906032533 21 164 3.2 8.0 0.00 0.00 0.00 29 1011.5
20260906032028 21 193 1.6 8.0 0.00 0.00 0.00 29 1011.5
20260906031531 20 191 0.0 3.2 0.00 0.00 0.00 30 1011.4
20260906031029 20 191 0.0 0.0 0.00 0.00 0.00 29 1011.4
20260906030527 20 191 0.0 1.6 0.00 0.00 0.00 29 1011.3
20260906030027 20 191 0.0 1.6 0.00 0.00 0.00 29 1011.3
20260906025529 20 191 0.0 6.4 0.00 0.00 0.00 29 1011.2
20260906025028 21 184 1.6 6.4 0.00 0.00 0.00 28 1011.2
20260906024526 21 187 1.6 8.0 0.00 0.00 0.00 28 1011.1
20260906024028 20 172 3.2 8.0 0.00 0.00 0.00 28 1011.0
20260906023530 20 196 1.6 6.4 0.00 0.00 0.00 29 1011.0
20260906023026 20 217 0.0 4.8 0.00 0.00 0.00 29 1010.9
20260906022526 20 227 1.6 4.8 0.00 0.00 0.00 31 1011.0
20260906022026 21 215 0.0 8.0 0.00 0.00 0.00 29 1010.9
20260906021526 21 215 3.2 8.0 0.00 0.00 0.00 28 1011.0
20260906021029 21 236 0.0 6.4 0.00 0.00 0.00 28 1010.9
20260906020525 21 224 3.2 6.4 0.00 0.00 0.00 27 1010.9
20260906020029 22 227 1.6 6.4 0.00 0.00 0.00 27 1010.8
20260906015525 22 247 0.0 4.8 0.00 0.00 0.00 27 1010.8
20260906015025 23 247 1.6 8.0 0.00 0.00 0.00 27 1010.7
20260906014533 23 208 4.8 9.7 0.00 0.00 0.00 26 1010.7
20260906014024 24 226 6.4 17.7 0.00 0.00 0.00 25 1010.7
20260906013525 25 257 11.3 17.7 0.00 0.00 0.00 22 1010.6
20260906013030 25 225 11.3 24.1 0.00 0.00 0.00 21 1010.6
20260906012526 25 223 17.7 24.1 0.00 0.00 0.00 21 1010.7
20260906012024 25 227 9.7 16.1 0.00 0.00 0.00 23 1010.7
20260906011524 25 235 11.3 19.3 0.00 0.00 0.00 22 1010.8
20260906011025 26 251 9.7 16.1 0.00 0.00 0.00 21 1010.8
20260906010526 26 218 8.0 12.9 0.00 0.00 0.00 20 1010.7
20260906010023 27 233 8.0 20.9 0.00 0.00 0.00 20 1010.7
20260906005527 27 231 16.1 25.7 0.00 0.00 0.00 19 1010.6
20260906005023 27 224 14.5 27.4 0.00 0.00 0.00 19 1010.6
20260906004522 27 236 17.7 29.0 0.00 0.00 0.00 19 1010.6
20260906004022 27 239 22.5 29.0 0.00 0.00 0.00 19 1010.5
20260906003522 27 238 8.0 17.7 0.00 0.00 0.00 20 1010.5
20260906003022 27 232 9.7 17.7 0.00 0.00 0.00 21 1010.5
20260906002521 28 218 8.0 17.7 0.00 0.00 0.00 20 1010.5
20260906002022 28 251 11.3 22.5 0.00 0.00 0.00 19 1010.4
20260906001521 28 272 14.5 22.5 0.00 0.00 0.00 19 1010.4
20260906001021 28 239 14.5 20.9 0.00 0.00 0.00 21 1010.5
20260906000521 28 230 11.3 19.3 0.00 0.00 0.00 19 1010.5
20260906000023 27 270 12.9 19.3 0.00 0.00 0.00 20 1010.6
20260905235523 27 224 11.3 30.6 0.00 0.00 0.00 20 1010.5
20260905235023 27 213 19.3 30.6 0.00 0.00 0.00 21 1010.6
20260905234522 27 210 20.9 27.4 0.00 0.00 0.00 20 1010.4
20260905234020 27 226 17.7 25.7 0.00 0.00 0.00 21 1010.4
20260905233520 27 225 14.5 24.1 0.00 0.00 0.00 21 1010.5
20260905233029 27 225 11.3 19.3 0.00 0.00 0.00 21 1010.4
20260905232524 26 212 9.7 19.3 0.00 0.00 0.00 23 1010.4
20260905232020 26 210 8.0 19.3 0.00 0.00 0.00 22 1010.3
20260905231519 27 209 9.7 25.7 0.00 0.00 0.00 21 1010.5
20260905231022 28 242 17.7 25.7 0.00 0.00 0.00 21 1010.4
20260905230519 28 196 1.6 20.9 0.00 0.00 0.00 21 1010.3
20260905230019 27 235 8.0 20.9 0.00 0.00 0.00 20 1010.3
20260905225518 27 226 4.8 17.7 0.00 0.00 0.00 23 1010.2
20260905225018 27 216 11.3 19.3 0.00 0.00 0.00 23 1010.3
20260905224521 27 224 12.9 24.1 0.00 0.00 0.00 21 1010.4
20260905224022 28 240 12.9 30.6 0.00 0.00 0.00 21 1010.2